This is the latest recevied weather packets stored in our database for station/object K4AMF. If no packets are shown the sender has not sent any weather packets the latest 10 day(s).
| Time | Temp. | Humidity | Pressure | Rain* | Wind** | Luminosity | Snow |
|---|---|---|---|---|---|---|---|
| 1777503279 | 31.67° C | 48% | 1006.7 hPa | 0 mm | - | 54 W/m² | - |
| 1777502974 | 31.67° C | 48% | 1007 hPa | 0 mm | - | 67 W/m² | - |
| 1777502672 | 31.67° C | 47% | 1006.9 hPa | 0 mm | - | 84 W/m² | - |
| 1777502369 | 31.67° C | 47% | 1006.7 hPa | 0 mm | - | 88 W/m² | - |
| 1777502065 | 32.22° C | 47% | 1006.8 hPa | 0 mm | - | 85 W/m² | - |
| 1777501762 | 32.78° C | 46% | 1006.6 hPa | 0 mm | - | 165 W/m² | - |
| 1777501460 | 32.22° C | 46% | 1006.6 hPa | 0 mm | - | 199 W/m² | - |
| 1777501157 | 32.22° C | 45% | 1006.7 hPa | 0 mm | - | 168 W/m² | - |
| 1777500856 | 31.67° C | 47% | 1006.8 hPa | 0 mm | - | 117 W/m² | - |
| 1777500552 | 32.22° C | 46% | 1006.7 hPa | 0 mm | - | 82 W/m² | - |
| 1777500249 | 32.22° C | 46% | 1006.8 hPa | 0 mm | - | 142 W/m² | - |
| 1777499945 | 32.22° C | 45% | 1006.5 hPa | 0 mm | - | 77 W/m² | - |
| 1777499642 | 33.33° C | 44% | 1006.7 hPa | 0 mm | - | 83 W/m² | - |
| 1777499339 | 32.78° C | 45% | 1006.6 hPa | 0 mm | - | 307 W/m² | - |
| 1777499037 | 32.78° C | 45% | 1007.1 hPa | 0 mm | - | 328 W/m² | - |
| 1777498732 | 33.33° C | 43% | 1007 hPa | 0 mm | - | 324 W/m² | - |
| 1777498429 | 33.33° C | 43% | 1006.6 hPa | 0 mm | - | 332 W/m² | - |
| 1777498126 | 32.78° C | 44% | 1007 hPa | 0 mm | - | 190 W/m² | - |
| 1777497824 | 32.78° C | 45% | 1007.1 hPa | 0 mm | - | 356 W/m² | - |
| 1777497520 | 32.78° C | 45% | 1007.2 hPa | 0 mm | - | 420 W/m² | - |
| 1777497216 | 32.78° C | 44% | 1007.2 hPa | 0 mm | - | 420 W/m² | - |
| 1777496913 | 32.78° C | 45% | 1007.4 hPa | 0 mm | - | 402 W/m² | - |
| 1777496610 | 33.33° C | 44% | 1007.1 hPa | 0 mm | - | 451 W/m² | - |
| 1777496306 | 32.78° C | 44% | 1007.2 hPa | 0 mm | - | 435 W/m² | - |
| 1777496001 | 32.78° C | 44% | 1007.5 hPa | 0 mm | - | 440 W/m² | - |
* Rain latest hour (hover to see other rain measurements)
** Current wind speed in m/s (hover to see current wind gust speed)